This demonstration page uses our WeatherBlox Daily Observations layout. Learn more.

Left ArrowRight Arrow

Hourly Observations for May 29, 2020

Temp ( °F °C ) Dew Point ( °F °C ) Humidity (%) Winds ( mph kmh ) Pressure ( in mb ) Visibility ( mi km ) Precip ( " mm )
12:54 am 00:54 Clear 59 15 44 6.7 58 58 NNW 7 11 30.12 1020 10 16.0934 0 0
1:54 am 01:54 Clear 59 15 44 6.7 58 58 NNW 6 9 30.12 1020 10 16.0934 0 0
2:54 am 02:54 Clear 58 14.4 44 6.7 60 60 NW 7 11 30.14 1021 10 16.0934 0 0
3:54 am 03:54 Clear 56 13.3 44 6.7 65 65 WNW 3 6 30.15 1021 10 16.0934 0 0
4:54 am 04:54 Clear 54 12.2 44 6.7 69 69 Calm 30.16 1022 10 16.0934 0 0
5:54 am 05:54 Clear 52 11.1 44 6.7 75 75 WSW 3 6 30.18 1022 10 16.0934 0 0
6:54 am 06:54 Sunny 53 11.7 45 7.2 74 74 W 5 7 30.19 1022 10 16.0934 0 0
7:54 am 07:54 Sunny 59 15 47 8.3 64 64 NW 5 7 30.19 1022 10 16.0934 0 0
8:54 am 08:54 Sunny 66 18.9 47 8.3 50 50 NNW 3 6 30.2 1023 10 16.0934 0 0
9:54 am 09:54 Sunny 71 21.7 46 7.8 41 41 NW 5 7 30.2 1023 10 16.0934 0 0
10:54 am 10:54 Sunny 74 23.3 42 5.6 32 32 NW 10 17 30.19 1022 10 16.0934 0 0
11:54 am 11:54 Sunny 76 24.4 43 6.1 31 31 N 15 24 30.18 1022 10 16.0934 0 0
12:54 pm 12:54 Sunny 77 25 43 6.1 30 30 NW 13 20 30.17 1022 10 16.0934 0 0
1:54 pm 13:54 Sunny 78 25.6 42 5.6 28 28 NNW 16 26 30.16 1021 10 16.0934 0 0
2:54 pm 14:54 Sunny 79 26.1 42 5.6 27 27 NW 9 15 30.15 1021 10 16.0934 0 0
3:54 pm 15:54 Mostly Sunny 80 26.7 42 5.6 26 26 NW 13 20 30.15 1021 10 16.0934 0 0
4:54 pm 16:54 Sunny 80 26.7 42 5.6 26 26 NNW 12 19 30.14 1021 10 16.0934 0 0
5:54 pm 17:54 Partly Cloudy 77 25 41 5 28 28 NW 12 19 30.14 1021 10 16.0934 0 0
6:54 pm 18:54 Sunny 77 25 42 5.6 29 29 NNE 10 17 30.14 1021 10 16.0934 0 0
7:54 pm 19:54 Sunny 76 24.4 38 3.3 25 25 NNW 9 15 30.14 1021 10 16.0934 0 0
8:54 pm 20:54 Clear 68 20 43 6.1 40 40 N 6 9 30.15 1021 10 16.0934 0 0
9:54 pm 21:54 Clear 65 18.3 43 6.1 45 45 N 5 7 30.17 1022 10 16.0934 0 0
10:54 pm 22:54 Mostly Clear 63 17.2 44 6.7 50 50 NNW 6 9 30.18 1022 10 16.0934 0 0
11:54 pm 23:54 Mostly Cloudy 60 15.6 46 7.8 60 60 Calm 30.19 1022 10 16.0934 0 0

Powered by AerisWeather